#timestamp,LO_Frequency,Hit,StdDev 
1512126015.4,286047001.2,N
1512126035.2,286047001.1,N
1512126055.1,286047001.2,N
1512126056.0,286047001.2,N
1512126075.8,286046998.2,N
1512126095.7,286047000.9,N
1512126115.5,286047002.8,N
1512126135.3,286046998.1,N
1512126155.2,286047000.1,N
1512126175.9,286047000.0,N
1512126195.7,286047000.5,N
1512126215.6,286047000.9,N
1512126235.4,286047000.8,N
1512126255.3,286047002.5,N
1512126275.1,286047002.3,N
1512126276.0,286047002.3,N
1512126295.8,286047000.0,N
1512126315.7,286047002.5,N
1512126335.5,286047001.8,N
1512126355.3,286046999.7,N
1512126375.2,286047001.6,N
1512126395.0,286047001.6,N
1512126395.9,286047001.6,N
1512126415.8,286047002.7,N
1512126435.6,286047000.2,N
1512126455.4,286047000.9,N
1512126475.3,286046998.7,N
1512126525.1,286047001.2,E
1512126535.1,286046998.5,N
1512126536.0,286046998.5,P
1512126555.8,286046999.5,P
1512126575.6,286046999.1,N
1512126595.5,286046999.5,N
1512126615.3,286046997.4,Y
1512126635.2,286046999.4,P
1512126655.9,286046998.3,P
1512126675.7,286047000.8,N
1512126695.6,286046999.2,N
1512126715.4,286046997.2,Y
1512126735.2,286046999.6,P
1512126755.1,286046996.6,P
1512126756.0,286046996.6,N
1512126775.8,286046997.2,N
1512126795.7,286046999.5,N
1512126815.5,286046998.3,N
1512126835.3,286047000.9,N
1512126855.2,286046998.2,N
1512126875.0,286047001.1,N
1512126875.9,286047001.1,N
1512126895.7,286046999.2,N
1512126915.6,286046999.4,N
1512126935.4,286046998.6,N
1512126955.3,286046997.1,N
1512126975.1,286046997.6,N
1512126976.0,286046997.6,N
1512126995.8,286046994.0,Y
1512127015.7,286046996.0,P
1512127035.5,286046996.3,N
1512127055.4,286046995.9,P
1512127075.2,286046995.4,Y
1512127095.0,286046998.3,P
1512127095.9,286046998.3,N
1512127115.8,286047001.1,N
1512127135.6,286047000.6,N
1512127155.4,286046999.2,N
1512127175.3,286046995.2,Y
1512127195.1,286046995.0,P
1512127215.9,286046997.7,N
1512127235.7,286046999.1,N
1512127255.5,286046998.8,N
1512127275.4,286046996.6,N
1512127295.2,286046998.4,N
1512127315.0,286046999.1,N
1512127316.0,286046999.1,N
1512127335.8,286046999.3,N
1512127355.6,286046997.3,N
1512127375.5,286046999.0,N
1512127395.3,286046999.1,N
1512127415.1,286046998.5,N
1512127435.9,286046999.0,N
1512127455.7,286046999.5,N
1512127475.5,286046998.4,N
1512127495.4,286046998.8,N
1512127515.2,286046998.5,N
1512127535.1,286046998.6,N
1512127536.0,286046998.6,N
1512127555.8,286047000.8,N
1512127575.6,286046998.2,N
1512127595.5,286046998.6,N
1512127615.3,286046999.1,N
1512127635.2,286046999.4,N
1512127685.9,286046995.8,E
1512127695.9,286046996.7,N
1512127715.7,286046998.7,P
1512127735.5,286046996.6,P
1512127755.4,286046999.0,N
1512127775.2,286046999.2,N
1512127795.0,286046999.5,N
1512127795.9,286046999.5,N
1512127815.8,286046998.8,N
1512127835.6,286047000.7,N
1512127855.5,286047000.9,N
1512127875.3,286046998.2,N
1512127895.1,286046999.9,N
1512127915.9,286046999.7,N
1512127935.7,286047001.6,N
1512127955.6,286047001.3,N
1512127975.4,286047001.7,N
1512127995.2,286047003.6,N
1512128015.1,286047003.2,N
1512128016.0,286047003.2,N
1512128035.8,286047001.4,N
1512128055.7,286047001.8,N
1512128075.5,286047001.4,N
1512128095.3,286046999.7,N
1512128115.2,286047000.1,N
1512128135.0,286047002.5,N
1512128135.9,286047002.5,N
1512128155.8,286046999.8,N
1512128175.6,286047001.0,N
1512128195.4,286047001.9,N
1512128215.3,286047002.5,N
1512128235.1,286047002.6,N
1512128255.8,286047000.1,N
1512128275.7,286046999.7,N
1512128295.5,286047002.4,N
1512128315.4,286047002.4,N
1512128335.2,286047004.4,Y
1512128355.0,286047002.3,P
1512128355.9,286047002.3,P
1512128375.8,286047002.7,P
1512128395.6,286047000.1,N
1512128415.5,286047000.6,N
1512128435.3,286047000.4,N
1512128455.1,286046998.9,N
1512128475.9,286046998.2,N
1512128495.7,286047000.7,N
1512128515.5,286047002.4,N
1512128535.4,286047002.5,N
1512128555.2,286047002.5,N
1512128575.1,286047003.5,N
1512128576.0,286047003.5,N
1512128595.8,286047004.2,N
1512128615.6,286047001.8,N
1512128635.5,286047002.4,N
1512128655.3,286047002.1,N
1512128675.1,286047002.2,N
1512128695.9,286047004.4,N
1512128715.7,286047001.6,N
1512128735.6,286047001.5,N
1512128755.4,286047004.4,N
1512128775.2,286047002.1,N
1512128795.1,286047001.5,N
1512128796.0,286047001.5,N
1512128815.8,286047002.1,N
1512128835.6,286047002.8,N
1512128855.5,286047000.4,N
1512128875.3,286047000.0,N
1512128895.2,286047000.0,N
1512128915.9,286047000.4,N
1512128935.7,286047000.0,N
1512128955.6,286046998.6,N
1512128975.4,286046998.2,N
1512128995.2,286046998.4,N
1512129015.1,286047000.3,N
1512129016.0,286047000.3,N
1512129035.8,286046999.7,N
1512129055.7,286046999.9,N
1512129075.5,286047001.8,N
1512129095.3,286047002.0,N
1512129115.2,286047001.3,N
1512129135.0,286047002.7,N
1512129135.9,286047002.7,N
1512129155.8,286047002.2,N
1512129175.6,286047002.4,N
1512129195.4,286047002.2,N
1512129215.3,286047000.4,N
1512129235.1,286047000.3,N
1512129255.8,286047002.2,N
1512129275.7,286046999.8,N
1512129295.5,286047000.6,N
1512129315.4,286047002.3,N
1512129335.2,286047002.4,N
1512129355.0,286047002.2,N
1512129355.9,286047002.2,N
1512129375.8,286047002.0,N
1512129395.6,286047002.2,N
1512129415.5,286046999.7,N
1512129435.3,286047000.5,N
1512129455.1,286046999.9,N
1512129475.9,286047000.6,N
1512129495.7,286047000.0,N
1512129515.6,286046999.7,N
1512129535.4,286047002.6,N
1512129555.2,286047001.7,N
1512129575.1,286046999.8,N
1512129576.0,286046999.8,N
1512129595.8,286047002.4,N
